Location: Arborea
(39.7744°N, 8.5819°E)
Time: 22:12:15
(UTC+00:00)

Cosmos 2344 - Pass Details

Date: 24 October 2021
Orbit: 1233 x 3009 km, 63.3° (Epoch: 06 December)

Event Time Altitude Azimuth Distance (km) Brightness Sun altitude
Rises 18:40:58 0° 325° (NW) 4,632 7.1 -25.1°
Reaches altitude 10° 18:43:35 10° 325° (NW) 3,798 6.5 -25.6°
Maximum altitude 18:53:17 88° 238° (WSW) 1,986 4.4 -27.5°
Enters shadow 19:04:08 18° 151° (SSE) 4,382 6.0 -29.5°
